Hauptseite
METAR-TAF:

METAR-TAF

Flughäfen :

Laupheim, Deutschland

Flugplatz Laupheim

Breite: 48-13N, Länge: 009-55E, Höhe: 538 m

Beobachtung

Neuester Wetterbericht von vor 34 Minuten, um 09:20 UTC
Wind 5 kt aus Südwest
Temperatur 21°C
Luftfeuchtigkeit 46%
Luftdruck 1022 hPa
Sichtweite 10 km oder mehr
Leicht bewölkt in der Höhe von 34000 ft

METAR: ETHL 210920Z 22005KT 9999 FEW340 21/09 Q1022 BLU+

Zeit: 11:54 (09:54 UTC)

Prognose

Neuester Wetterbericht von vor 23 Minuten, um 09:31 UTC
Gültige Prognose vom 20 um 10 UTC bis 20 um 17 UTC
Wind 3 kt aus unterschiedlichen Richtungen
Sichtweite: 1030 m
Leicht bewölkt in der Höhe von 30000 ft

TAF: ETHL 200931Z 2010/2017 VRB03KT 9999 NSW FEW300 CANCEL 1030

Wetterbeobachtungen und Prognosen von mehr als 4000 Flughäfen (METAR und TAF Bericht).

Die verfügbaren Stationen werden durch gelbe und rote Markierungen auf der Karte dargestellt.

Führen Sie die Maus auf sie, um den Namen der Station zu sehen.

Darauf klicken, um die Beobachtung von Wetterbeobachtungen und Prognosen zu sehen.

Um die Karte zu ändern : klicken Sie auf den grünen Tasten mit einem schwarzen Kreuz Zum Vergrößern, auf den grünen Button mit einem Gedankenstrich zu verkleinern, oder auf die grünen Pfeile für benachbarte Karten.


METAR-TAF: